Location: Tuebingen alte Sternwarte
(48.5376°N, 9.0555°E)
Time: 22:52:56
(UTC+01:00)

OTV 5 (USA 277) - Visible Passes

Search period start: 24 February 2018 00:00
Search period end: 06 March 2018 00:00
Orbit: 404 x 417 km, 43.0° (Epoch: 07 September)

Date Brightness Start Highest point End Pass type
(mag) Time Alt. Az. Time Alt. Az. Time Alt. Az.
24 Feb ? 05:03:42 15° SSE 05:03:42 15° SSE 05:05:34 10° ESE visible
24 Feb ? 06:37:25 10° SW 06:40:20 29° S 06:43:14 10° ESE visible
25 Feb ? 05:47:48 18° SSW 05:49:23 26° S 05:52:12 10° ESE visible
26 Feb ? 04:59:06 21° SE 04:59:06 21° SE 05:01:07 10° ESE visible
26 Feb ? 06:32:20 10° WSW 06:35:17 31° S 06:38:14 10° ESE visible
27 Feb ? 05:43:07 23° SW 05:44:20 30° S 05:47:17 10° ESE visible
28 Feb ? 04:54:23 24° SE 04:54:23 24° SE 04:56:17 10° ESE visible
28 Feb ? 06:27:25 10° WSW 06:30:14 26° S 06:33:03 10° SE visible
01 Mar ? 05:38:23 25° SW 05:39:17 29° S 05:42:12 10° SE visible
02 Mar ? 04:49:40 22° SE 04:49:40 22° SE 04:51:17 10° ESE visible
02 Mar ? 06:22:44 10° WSW 06:25:07 19° SSW 06:27:30 10° SSE visible
03 Mar ? 05:33:44 22° SSW 05:34:13 22° SSW 05:36:51 10° SE visible
04 Mar ? 04:45:06 16° SE 04:45:06 16° SE 04:46:06 10° SE visible
04 Mar ? 06:18:53 10° SW 06:19:55 11° SSW 06:20:56 10° S visible
05 Mar ? 05:29:19 15° SSW 05:29:19 15° SSW 05:30:58 10° SSE visible
